Weather Service Report


917 
ASUS43 KDMX 301808
RWRIA 

WEATHER ROUNDUP FOR IOWA
NATIONAL WEATHER SERVICE DES MOINES IA
100 PM CDT FRI SEP 30 2016

NOTE: "FAIR" INDICATES FEW OR NO CLOUDS BELOW 12,000 FEET WITH NO
SIGNIFICANT WEATHER AND/OR OBSTRUCTIONS TO VISIBILITY.

* - THESE STATIONS ARE NOT NWS STATIONS...THUS NOT UNDER NWS
QUALITY CONTROL.  THEY ALSO DO NOT REPORT WEATHER SUCH 
AS PRECIPITATION OR FOG.  

IAZ001>003-012>014-020>022-031>034-043>046-301900-
   NORTHWEST IOWA
  
CITY           SKY/WX    TMP DP  RH WIND       PRES   REMARKS
CARROLL *      SUNNY     70  52  52 NE14G21   30.25F                  
CHEROKEE *     SUNNY     69  50  50 N9        30.27F                  
DENISON *      SUNNY     68  46  45 N12       30.24F                  
LE MARS *      SUNNY     70  48  46 E8        30.28F                  
SHELDON *      SUNNY     70  48  46 VRB7G15   30.27F                  
SIOUX CITY     SUNNY     71  49  45 VRB7      30.27F                  
6HR MIN TEMP:  41; 6HR MAX TEMP:  71;                                

SPENCER        SUNNY     70  50  49 VRB6      30.28F                  
6HR MIN TEMP:  38; 6HR MAX TEMP:  70;                                

STORM LAKE *   SUNNY     70  48  46 NE9G16    30.28F                  
$$
 
IAZ055>058-069>071-079>083-090>094-301900-
   SOUTHWEST IOWA
  
CITY           SKY/WX    TMP DP  RH WIND       PRES   REMARKS
ATLANTIC *     SUNNY     70  48  46 NE14      30.24F                  
AUDUBON *      SUNNY     70  50  49 N12       30.25F                  
CLARINDA *       N/A     72  48  43 MISG      30.24F                  
COUNCIL BLFS * SUNNY     70  48  46 NE7       30.25F                  
CRESTON *      MOSUNNY   66  52  59 N12G20    30.25F                  
HARLAN  *      SUNNY     70  48  46 N9G16     30.28F                  
LAMONI         PTSUNNY   67  55  65 N14       30.22F                  
6HR MIN TEMP:  50; 6HR MAX TEMP:  68;                                

RED OAK *      SUNNY     70  50  49 NE9G18    30.24F                  
SHENANDOAH *   SUNNY     72  48  43 N8G17     30.24F                  
$$
 
IAZ047>049-059>061-072>074-084-301900-
   CENTRAL IOWA
  
CITY           SKY/WX    TMP DP  RH WIND       PRES   REMARKS
AMES           CLOUDY    63  56  78 N8        30.25F                  
6HR MIN TEMP:  48; 6HR MAX TEMP:  63;                                

ANKENY *         N/A    N/A N/A N/A MISG        N/A                   
BOONE *        CLOUDY    63  54  72 NE9       30.25F                  
CHARITON *       N/A     63  54  72 N10       30.22F                  
DES MOINES     CLOUDY    64  53  67 N10       30.24F                  
6HR MIN TEMP:  54; 6HR MAX TEMP:  64;                                

GRINNELL*      CLOUDY    64  54  70 N7        30.23F                  
KNOXVILLE *    CLOUDY    63  54  72 N7        30.21F                  
MARSHALLTOWN   CLOUDY    64  55  72 NE10      30.23F                  
6HR MIN TEMP:  50; 6HR MAX TEMP:  65;                                

NEWTON *       CLOUDY    63  54  72 N9        30.23S                  
PELLA *        CLOUDY    64  54  68 N5        30.23F                  
PERRY *        CLOUDY    64  55  74 NE7       30.26F HAZE             
$$
 
IAZ004>006-015-016-023>025-035-036-301900-
   NORTH CENTRAL IOWA
  
CITY           SKY/WX    TMP DP  RH WIND       PRES   REMARKS
ALGONA *       MOSUNNY   68  52  56 NE8G17    30.28F                  
CLARION *      PTSUNNY   68  55  64 NE10      30.26F                  
ESTHERVILLE    SUNNY     68  48  48 NE15      30.28F                  
6HR MIN TEMP:  40; 6HR MAX TEMP:  68;                                

FORT DODGE *   CLOUDY    68  55  64 E12       30.27F                  
MASON CITY     CLOUDY    67  53  61 NE10G18   30.28F                  
6HR MIN TEMP:  48; 6HR MAX TEMP:  69;                                

FOREST CITY *    N/A     70  52  52 NE9G16    30.27F                  
WEBSTER CITY * CLOUDY    64  55  72 NE10      30.25F                  
IOWA FALLS *   CLOUDY    63  55  75 NE13      30.26F                  
$$

IAZ007>011-017>019-026>030-037>042-050>054-066-301900-
   NORTHEAST IOWA
  
CITY           SKY/WX    TMP DP  RH WIND       PRES   REMARKS
CEDAR RAPIDS   CLOUDY    62  57  83 NE8       30.21F                  
6HR MIN TEMP:  50; 6HR MAX TEMP:  63;                                

CHARLES CITY * CLOUDY    64  55  72 NE13      30.26F                  
CLINTON *      CLOUDY    65  58  78 NE10      30.18                   
DECORAH *      CLOUDY    61  55  82 NE8G15    30.26F                  
DUBUQUE        CLOUDY    60  56  86 N10       30.21F                  
6HR MIN TEMP:  56; 6HR MAX TEMP:  60;                                

MONTICELLO *   CLOUDY    63  55  77 N9        30.21F                  
OELWEIN *      CLOUDY    63  55  77 NE15      30.25F                  
WATERLOO       CLOUDY    63  54  72 NE12      30.24F                  
6HR MIN TEMP:  52; 6HR MAX TEMP:  63;                                

$$
 
IAZ064-065-067-068-078-301900-
   EAST CENTRAL IOWA
  
CITY           SKY/WX    TMP DP  RH WIND       PRES   REMARKS
DAVENPORT      CLOUDY    63  56  78 N9        30.18F                  
6HR MIN TEMP:  56; 6HR MAX TEMP:  63;                                

IOWA CITY      CLOUDY    63  56  78 N13       30.22F                  
6HR MIN TEMP:  54; 6HR MAX TEMP:  65;                                

MT. PLEASANT * CLOUDY    68  57  68 N15       30.18F                  
MUSCATINE *    CLOUDY    66  55  68 NE13      30.19S                  
QUAD CITIES    CLOUDY    65  56  72 NE9       30.17F                  
6HR MIN TEMP:  59; 6HR MAX TEMP:  65; 6HR PCP: TRACE;                

$$
 
IAZ062-063-075>077-085>089-095>099-301900-
   SOUTHEAST IOWA
  
CITY           SKY/WX    TMP DP  RH WIND       PRES   REMARKS
BURLINGTON     CLOUDY    63  58  83 N7        30.17S                  
6HR MIN TEMP:  53; 6HR MAX TEMP:  63;                                

FAIRFIELD *    CLOUDY    64  55  72 NE9       30.19F                  
FORT MADISON *   N/A     64  57  77 N12       30.17F                  
KEOKUK *       CLOUDY    63  57  82 N9G17     30.16F                  
OSKALOOSA *    CLOUDY    65  55  69 NE9       30.22S                  
OTTUMWA        CLOUDY    66  54  65 N9        30.20F                  
6HR MIN TEMP:  52; 6HR MAX TEMP:  66;                                

WASHINGTON *     N/A    N/A N/A N/A MISG        N/A                   
$$

ABBREVIATIONS USED IN REMARKS
   TC - TEMPERATURES IN CELSIUS
  WCI - WIND CHILL INDEX
   HX - HEAT INDEX
  VSB - VISIBILITY  
$$

  

Return to Home page


Western Regional Climate Center, wrcc@dri.edu